DELPHINI (44030 NORAD) Tracking and Keplerian Element Data

This shows tracking and keplerian element data for the satellite.

Feedback or suggestion? Click here.




ElementValue
Catalog44030
NameDELPHINI
Epoch Orbit320
Epoch Day51.83349206
Epoch Year2019
RAAN219.6834
Inclination51.6378
Eccentricity0.0004865
Argument of Perigee72.2449
Mean Anonmoly287.9073
Mean Motion15.54121985
Decay Rate8.575E-05
L11 44030U 98067PW 19051.83349206 .00008575 00000-0 13664-3 0 9990
L22 44030 51.6378 219.6834 0004865 72.2449 287.9073 15.54121985 3209

Live tracking and technical data element details for DELPHINI (NORAD 44030). DELPHINI can be tracked NOW for your location showing map with azimuth and elevation plus other details from your city location.

Track the satellite on the map from your city or location and see movement details for azimuth, elevation, latitude, longitude, range, height, and movement on the map or in text.







IsCatalogInMostPopularTable: catalog: 44030, numindb: 8
Update: records affected: 1



GetName: 44030 DELPHINI

Hit Count: updated at: Thu, 21 Feb 2019 11:22:49 GMT